This is the latest recevied weather packets stored in our database for station/object N0HOT. If no packets are shown the sender has not sent any weather packets the latest 10 day(s).
| Time | Temp. | Humidity | Pressure | Rain* | Wind** | Luminosity | Snow |
|---|---|---|---|---|---|---|---|
| 1777997294 | 11.67° C | 25% | 1011.1 hPa | 0 mm | - | 612 W/m² | - |
| 1777996992 | 11.67° C | 24% | 1011.1 hPa | 0 mm | - | 647 W/m² | - |
| 1777996688 | 12.22° C | 26% | 1010.8 hPa | 0 mm | - | 584 W/m² | - |
| 1777996384 | 12.22° C | 25% | 1011.1 hPa | 0 mm | - | 642 W/m² | - |
| 1777996080 | 12.22° C | 25% | 1010.8 hPa | 0 mm | - | 720 W/m² | - |
| 1777995777 | 12.22° C | 26% | 1010.8 hPa | 0 mm | - | 618 W/m² | - |
| 1777995473 | 11.67° C | 24% | 1011.1 hPa | 0 mm | - | 610 W/m² | - |
| 1777995170 | 11.67° C | 23% | 1010.8 hPa | 0 mm | - | 565 W/m² | - |
| 1777994867 | 11.67° C | 24% | 1010.8 hPa | 0 mm | - | 642 W/m² | - |
| 1777994564 | 11.11° C | 25% | 1011.1 hPa | 0 mm | - | 691 W/m² | - |
| 1777994258 | 11.11° C | 29% | 1011.1 hPa | 0 mm | - | 592 W/m² | - |
| 1777993956 | 11.11° C | 27% | 1011.1 hPa | 0 mm | - | 655 W/m² | - |
| 1777993652 | 11.11° C | 26% | 1011.1 hPa | 0 mm | - | 589 W/m² | - |
| 1777993350 | 11.11° C | 26% | 1010.8 hPa | 0 mm | - | 619 W/m² | - |
| 1777993044 | 11.11° C | 28% | 1010.8 hPa | 0 mm | - | 630 W/m² | - |
| 1777992743 | 11.11° C | 29% | 1011.1 hPa | 0 mm | - | 542 W/m² | - |
| 1777992440 | 10.56° C | 30% | 1011.1 hPa | 0 mm | - | 592 W/m² | - |
| 1777992138 | 10° C | 31% | 1011.1 hPa | 0 mm | - | 551 W/m² | - |
| 1777991835 | 10° C | 32% | 1011.1 hPa | 0 mm | - | 482 W/m² | - |
| 1777991532 | 9.44° C | 34% | 1011.1 hPa | 0 mm | - | 402 W/m² | - |
| 1777991229 | 8.89° C | 35% | 1011.1 hPa | 0 mm | - | 447 W/m² | - |
| 1777990926 | 8.89° C | 36% | 1011.1 hPa | 0 mm | - | 361 W/m² | - |
| 1777990624 | 8.89° C | 40% | 1011.5 hPa | 0 mm | - | 299 W/m² | - |
| 1777990017 | 8.89° C | 41% | 1011.1 hPa | 0 mm | - | 65 W/m² | - |
| 1777989714 | 8.89° C | 40% | 1011.1 hPa | 0 mm | - | 109 W/m² | - |
* Rain latest hour (hover to see other rain measurements)
** Current wind speed in m/s (hover to see current wind gust speed)